This is the latest recevied weather packets stored in our database for station/object W4MSI. If no packets are shown the sender has not sent any weather packets the latest 10 day(s).
| Time | Temp. | Humidity | Pressure | Rain* | Wind** | Luminosity | Snow |
|---|---|---|---|---|---|---|---|
| 1778103739 | 13.33° C | 78% | 1013.7 hPa | 0 mm | - | 60 W/m² | - |
| 1778103437 | 13.89° C | 78% | 1013.7 hPa | 0 mm | - | 62 W/m² | - |
| 1778103134 | 13.89° C | 79% | 1013.7 hPa | 0 mm | - | 64 W/m² | - |
| 1778102831 | 13.89° C | 78% | 1013.2 hPa | 0 mm | - | 142 W/m² | - |
| 1778102526 | 13.89° C | 77% | 1013.9 hPa | 0 mm | - | 76 W/m² | - |
| 1778102222 | 13.89° C | 76% | 1014 hPa | 0 mm | - | 68 W/m² | - |
| 1778101918 | 13.89° C | 78% | 1013.6 hPa | 0 mm | - | 77 W/m² | - |
| 1778101616 | 13.89° C | 78% | 1012.8 hPa | 0 mm | - | 60 W/m² | - |
| 1778101312 | 13.89° C | 79% | 1012.5 hPa | 0 mm | - | 66 W/m² | - |
| 1778101010 | 13.89° C | 80% | 1012.5 hPa | 0 mm | - | 110 W/m² | - |
| 1778100704 | 13.89° C | 80% | 1013.2 hPa | 0 mm | - | 126 W/m² | - |
| 1778100403 | 13.89° C | 80% | 1013.3 hPa | 0 mm | - | 104 W/m² | - |
| 1778100099 | 13.89° C | 76% | 1013.6 hPa | 0 mm | - | 74 W/m² | - |
| 1778099797 | 13.89° C | 78% | 1013.4 hPa | 0 mm | - | 51 W/m² | - |
| 1778099493 | 14.44° C | 75% | 1013.6 hPa | 0 mm | - | 80 W/m² | - |
| 1778099192 | 14.44° C | 73% | 1013.7 hPa | 0 mm | - | 58 W/m² | - |
| 1778098887 | 14.44° C | 72% | 1013.6 hPa | 0 mm | - | 79 W/m² | - |
| 1778098585 | 14.44° C | 76% | 1013.8 hPa | 0 mm | - | 111 W/m² | - |
| 1778098281 | 14.44° C | 73% | 1013.7 hPa | 0 mm | - | 97 W/m² | - |
| 1778097978 | 15° C | 70% | 1014.1 hPa | 0 mm | - | 62 W/m² | - |
| 1778097675 | 15° C | 70% | 1014 hPa | 0 mm | - | 48 W/m² | - |
| 1778097371 | 15.56° C | 70% | 1013.6 hPa | 0 mm | - | 70 W/m² | - |
| 1778097068 | 15.56° C | 70% | 1013.2 hPa | 0 mm | - | 113 W/m² | - |
| 1778096765 | 15° C | 71% | 1013.4 hPa | 0 mm | - | 234 W/m² | - |
| 1778096461 | 15° C | 73% | 1013.4 hPa | 0 mm | - | 214 W/m² | - |
* Rain latest hour (hover to see other rain measurements)
** Current wind speed in m/s (hover to see current wind gust speed)